Simultaneous Nadir Overpasses (SNOs) Predictions

Prediction of SNOs between TERRA and METOP-C Satellite Orbit:

Table of predicted SNOs for the next 14.0 days since TLE Epoch: 7/1/2023
Index Date (TERRA) Time (TERRA) Lat,Lon (TERRA) SZA (TERRA ) Date (METOP-C) Time (METOP-C) Lat,Lon (METOP-C) SZA (METOP-C ) Distance(km) Time Diff (sec)
1 07/02/2023 17:33:06 -80.75, 128.26 120.93 07/02/2023 17:32:46 -80.75, 128.14 120.95 2.25 20
2 07/02/2023 18:22:25 80.82, -63.33 59.19 07/02/2023 18:23:22 80.82, -63.30 59.22 0.74 57
3 07/05/2023 08:54:29 80.76, 77.93 59.29 07/05/2023 08:53:42 80.76, 78.04 59.28 2.12 47
4 07/05/2023 09:43:50 -80.82,-113.70 120.60 07/05/2023 09:44:21 -80.82,-113.54 120.57 2.91 31
5 07/08/2023 00:15:55 -80.72, 27.13 120.53 07/08/2023 00:14:43 -80.72, 27.10 120.56 0.48 72
6 07/08/2023 01:05:13 80.78,-164.54 59.59 07/08/2023 01:05:18 80.79,-164.40 59.61 2.56 5
7 07/10/2023 16:26:38 -80.76, 144.88 120.15 07/10/2023 16:26:18 -80.76, 144.98 120.14 1.71 20
8 07/10/2023 17:15:57 80.82, -46.80 59.97 07/10/2023 17:16:55 80.81, -46.89 59.97 1.74 58
9 07/13/2023 07:48:01 80.72, 94.07 60.13 07/13/2023 07:47:16 80.72, 93.99 60.11 1.42 45



Historial Predications of SNOs between TERRA and METOP-C
